This is the latest recevied weather packets stored in our database for station/object OK1FRN-6. If no packets are shown the sender has not sent any weather packets the latest 10 day(s).
| Time | Temp. | Humidity | Pressure | Rain* | Wind** | Luminosity | Snow |
|---|---|---|---|---|---|---|---|
| 1777395598 | 18.33° C | 30% | 1020.6 hPa | - | - | - | - |
| 1777394065 | 18.89° C | 29% | 1020.5 hPa | - | - | - | - |
| 1777393759 | 18.89° C | 29% | 1020.5 hPa | - | - | - | - |
| 1777393452 | 18.89° C | 29% | 1020.6 hPa | - | - | - | - |
| 1777393146 | 19.44° C | 28% | 1020.6 hPa | - | - | - | - |
| 1777391613 | 20° C | 28% | 1020.5 hPa | - | - | - | - |
| 1777390693 | 20.56° C | 26% | 1020.6 hPa | - | - | - | - |
| 1777387012 | 21.11° C | 25% | 1020.6 hPa | - | - | - | - |
| 1777386399 | 21.67° C | 24% | 1020.7 hPa | - | - | - | - |
| 1777385785 | 21.67° C | 25% | 1020.7 hPa | - | - | - | - |
| 1777385478 | 21.67° C | 25% | 1020.8 hPa | - | - | - | - |
| 1777385172 | 22.22° C | 25% | 1020.8 hPa | - | - | - | - |
| 1777384865 | 22.22° C | 25% | 1020.8 hPa | - | - | - | - |
| 1777384559 | 22.22° C | 25% | 1020.8 hPa | - | - | - | - |
| 1777384251 | 21.67° C | 26% | 1020.8 hPa | - | - | - | - |
| 1777383638 | 22.22° C | 25% | 1020.9 hPa | - | - | - | - |
| 1777383024 | 22.22° C | 25% | 1021 hPa | - | - | - | - |
| 1777381797 | 21.67° C | 25% | 1021 hPa | - | - | - | - |
| 1777381490 | 21.67° C | 25% | 1021.1 hPa | - | - | - | - |
| 1777380570 | 21.67° C | 26% | 1021.2 hPa | - | - | - | - |
| 1777379956 | 21.11° C | 24% | 1021.1 hPa | - | - | - | - |
| 1777379343 | 21.67° C | 23% | 1021.3 hPa | - | - | - | - |
| 1777378729 | 22.22° C | 24% | 1021.2 hPa | - | - | - | - |
| 1777377809 | 22.22° C | 25% | 1021.3 hPa | - | - | - | - |
| 1777377502 | 22.22° C | 25% | 1021.3 hPa | - | - | - | - |
* Rain since midnight (hover to see other rain measurements)
** Current wind speed in m/s (hover to see current wind gust speed)